Lexington Weather

Lexington, Massachusetts, USA

27°F
12/12/2019 4:34pm 
  • Lexington Conditions: Partly cloudy
  • Temperature: 27.3°F / -2.6°CColder 1.6°F than last hour.
  • Dew Point: 19.8°FDecreased 0.3°Fsince last hour.
  • Relative Humidity: 73%Increased 4.0% since last hour.
  • Wind: Wind from WSW WSW 1 mph, 10-min avg: Calm, gust: 1 mph
  • Barometer: 30.66 in Steady
  • Visibility: 10 miles
  • Snow Today: 0.0 in
  •   

Regional Weather Roundup
for Boston / Norton, MA

        
000
ASUS41 KBOX 101401
RWRBOX

REGIONAL WEATHER ROUNDUP
NATIONAL WEATHER SERVICE BOSTON/NORTON MA
900 AM EST TUE DEC 10 2019

NOTE:  "FAIR" INDICATES FEW OR NO CLOUDS BELOW 12,000 FEET WITH NO 
SIGNIFICANT WEATHER AND/OR OBSTRUCTIONS TO VISIBILITY.

MAZALL-101500-
EASTERN MASSACHUSETTS
  
CITY           SKY/WX    TMP DP  RH WIND       PRES   REMARKS
BOSTON         PTSUNNY   60  52  74 SW21      29.74R                  
BEVERLY        FAIR      57  52  83 SW14      29.72R                  
LAWRENCE       FAIR      54  50  86 VRB7      29.74R                  
BEDFORD        PTSUNNY   57  51  80 SW10      29.72R                  
BLUE HILL        N/A     55  52  89 SW21G29   29.74R                  
NORWOOD        FAIR      61  52  72 S10G21    29.75R                  
MARSHFIELD     NOT AVBL                                               
PLYMOUTH       CLOUDY    56  54  93 SW17G24   29.78R                  
TAUNTON        FAIR      57  53  86 SW12G21   29.78R                  
NEW BEDFORD    CLOUDY    56  53  90 SW12G21   29.80R                  
$$

MAZALL-101500-
CAPE COD AND THE ISLANDS
  
CITY           SKY/WX    TMP DP  RH WIND       PRES   REMARKS
FALMOUTH       CLOUDY    55  55 100 SW21G28   29.80S FOG              
HYANNIS        NOT AVBL                                               
CHATHAM        FOG       50  50 100 SW7       29.83S VSB 1/4          
PROVINCETOWN   CLOUDY    52  52 100 SW22G28   29.79R FOG              
NANTUCKET      CLOUDY    53  51  93 SW17      29.84S FOG              
MARTHAS VNYRD  CLOUDY    55  54  96 SW13G22   29.83R FOG              
$$
 
MAZALL-101500-
CENTRAL AND WESTERN MASSACHUSETTS
  
CITY           SKY/WX    TMP DP  RH WIND       PRES   REMARKS
WORCESTER      CLOUDY    52  49  89 SW17      29.74R                  
FITCHBURG      FAIR      54  47  77 VRB7      29.72R                  
ORANGE         PTSUNNY   52  48  86 S14       29.73R                  
SPRINGFIELD    NOT AVBL                                               
WESTFIELD      CLOUDY    48  46  93 S8        29.75R                  
NORTH ADAMS    LGT RAIN  43  42  97 E7        29.72R FOG              
PITTSFIELD     LGT RAIN  50  46  86 S9        29.72R                  
$$
 
RIZALL-101500-
RHODE ISLAND
  
CITY           SKY/WX    TMP DP  RH WIND       PRES   REMARKS
PROVIDENCE     PTSUNNY   57  54  89 SW12      29.79R                  
NEWPORT        CLOUDY    54  51  90 SW7       29.80R FOG              
BLOCK ISLAND   CLOUDY    54  53  97 SW18      29.82R FOG              
SMITHFIELD     CLOUDY    56  53  90 SW8       29.78R                  
WESTERLY       CLOUDY    55  50  83 SW6       29.82R HAZE             
$$
 
CTZALL-101500-
CONNECTICUT
  
CITY           SKY/WX    TMP DP  RH WIND       PRES   REMARKS
BRADLEY INTL   CLOUDY    49  48  97 S7        29.76R FOG              
HARTFORD       CLOUDY    56  52  86 S8        29.77R                  
BRIDGEPORT     CLOUDY    52  49  89 SW6       29.80R                  
DANBURY        CLOUDY    54  51  90 SW9G22    29.80R                  
GROTON         NOT AVBL                                               
NEW HAVEN      CLOUDY    53  51  93 S7        29.80R FOG              
CHESTER        CLOUDY    55  54  94 VRB5G15   29.80R FOG              
MERIDEN        CLOUDY    53  51  93 S7        29.78R                  
WILLIMANTIC    CLOUDY    56  53  90 SW6       29.79R                  
OXFORD         CLOUDY    53  52  96 SW9       29.79R                  
$$

MEZ002-015-021-024-NHZ003-005-008-011-012-014-VTZ005-008-101500-
NORTHERN NEW ENGLAND
  
CITY           SKY/WX    TMP DP  RH WIND       PRES   REMARKS
PORTLAND ME    CLOUDY    54  48  80 SW7       29.69R                  
BANGOR ME      CLOUDY    53  50  89 S12       29.63R                  
CONCORD NH     PTSUNNY   51  47  86 S5        29.69R                  
MANCHESTER NH  PTSUNNY   53  49  86 S6        29.69R                  
NASHUA NH      FAIR      54  51  90 VRB6      29.71R                  
PORTSMOUTH NH  NOT AVBL                                               
JAFFREY NH     CLOUDY    49  46  90 S8        29.72R                  
KEENE NH       CLOUDY    49  47  93 S6        29.73R                  
BURLINGTON VT  CLOUDY    50  45  83 S16       29.60R                  
MT. WASHINGTON LGT RAIN  34  34 100 W54G62      N/A  VSB 1/16WCI  16  
$$

NYZ052-076-101500-
EASTERN NEW YORK
  
CITY           SKY/WX    TMP DP  RH WIND       PRES   REMARKS
ALBANY         DRIZZLE   49  45  86 S10       29.71R                  
NEW YORK CITY  CLOUDY    57  51  80 SW12      29.79R                  
$$
 
ANZALL-101500-
MARINE OBSERVATIONS
  
STATION/POSITION TIME  TEMP    WIND        PRES    VSBY  WAVE
                       AIR SEA DIR/SP/G                  HT/PER
                 (UTC) (F)     (DEG/KT/KT) (MB)    (MI)  (FT/S)
BOSTON BUOY      1250   52 48  210/ 10/ 10 1005.9          3/ 8
BUZZARDS BAY     1300   53     220/ 15/ 16 1009.7R
NANTUCKET SOUND  1320                      1009.7F
MASS BAY-STELLWA 1304   49 46  220/  8/ 10 1004.4F  1 7/8  5/ 8
ISLE OF SHOALS   1300   53     220/ 17/ 17 1005.6R
S OF BLOCK IS    1330      53                N/A          14/11
$$

......................KEY.........................
  SKY/WX - SKY CONDITION/PRESENT WEATHER
  TMP    - TEMPERATURE IN FAHRENHEIT
  DWPT   - DEWPOINT IN FAHRENHEIT
  RH     - RELATIVE HUMIDITY IN PERCENT
  WIND   - DIRECTION AND SPEED IN MPH
  PRES   - MEAN SEA LEVEL PRESSURE IN INCHES OF HG
  WCI    - WIND CHILL INDEX
  VSB    - VISIBILITY IN MILES
  HX     - HEAT INDEX
  TC     - TEMPERATURE IN CELSIUS
  VRB    - VARIABLE WIND DIRECTION
  N/A    - NOT AVAILABLE
  
      

Other recent Regional Weather Roundups

Thu Dec 12, 4:10pm

Thu Dec 12, 4:01pm

Thu Dec 12, 3:10pm

Thu Dec 12, 3:00pm

Thu Dec 12, 2:10pm

Thu Dec 12, 2:01pm

Thu Dec 12, 1:10pm

Thu Dec 12, 1:00pm

Thu Dec 12, 12:10pm

Thu Dec 12, 12:00pm

Thu Dec 12, 11:10am

Thu Dec 12, 11:00am

Thu Dec 12, 10:10am

Thu Dec 12, 8:10am

Thu Dec 12, 8:00am

Thu Dec 12, 7:10am

Thu Dec 12, 7:00am

Thu Dec 12, 6:10am

Thu Dec 12, 6:00am

Thu Dec 12, 5:10am

Thu Dec 12, 5:00am

Thu Dec 12, 4:10am

Thu Dec 12, 4:00am

Thu Dec 12, 3:10am

Thu Dec 12, 3:00am

Thu Dec 12, 2:10am

Thu Dec 12, 2:00am

Thu Dec 12, 1:10am

Thu Dec 12, 1:00am

Thu Dec 12, 12:10am

Thu Dec 12, 12:00am

Wed Dec 11, 11:10pm

Wed Dec 11, 11:00pm

Wed Dec 11, 10:10pm

Wed Dec 11, 10:00pm

Wed Dec 11, 9:10pm

Wed Dec 11, 9:00pm

Wed Dec 11, 8:10pm

Wed Dec 11, 8:00pm

Wed Dec 11, 7:10pm

Wed Dec 11, 7:00pm

Wed Dec 11, 6:10pm

Wed Dec 11, 6:00pm

Wed Dec 11, 5:10pm

Wed Dec 11, 5:01pm

Wed Dec 11, 4:10pm

Wed Dec 11, 4:00pm

Wed Dec 11, 3:10pm

Wed Dec 11, 3:01pm

Wed Dec 11, 2:10pm

Wed Dec 11, 2:00pm

Wed Dec 11, 1:10pm

Wed Dec 11, 1:00pm

Wed Dec 11, 12:10pm

Wed Dec 11, 12:00pm

Wed Dec 11, 11:10am

Wed Dec 11, 11:00am

Wed Dec 11, 10:10am

Wed Dec 11, 10:00am

Wed Dec 11, 9:10am

Wed Dec 11, 9:00am

Wed Dec 11, 8:10am

Wed Dec 11, 8:00am

Wed Dec 11, 7:10am

Wed Dec 11, 7:00am

Wed Dec 11, 6:10am

Wed Dec 11, 6:00am

Wed Dec 11, 5:10am

Wed Dec 11, 5:00am

Wed Dec 11, 4:10am

Wed Dec 11, 4:00am

Wed Dec 11, 3:10am

Wed Dec 11, 3:01am

Wed Dec 11, 2:10am

Wed Dec 11, 2:01am

Wed Dec 11, 1:10am

Wed Dec 11, 1:00am

Wed Dec 11, 12:10am

Wed Dec 11, 12:00am

Tue Dec 10, 11:10pm

Tue Dec 10, 11:00pm

Tue Dec 10, 10:10pm

Tue Dec 10, 10:00pm

Tue Dec 10, 9:10pm

Tue Dec 10, 9:01pm

Tue Dec 10, 8:10pm

Tue Dec 10, 8:00pm

Tue Dec 10, 7:10pm

Tue Dec 10, 7:01pm

Tue Dec 10, 6:10pm

Tue Dec 10, 6:01pm

Tue Dec 10, 5:10pm

Tue Dec 10, 5:00pm

Tue Dec 10, 4:10pm

Tue Dec 10, 4:01pm

Tue Dec 10, 3:10pm

Tue Dec 10, 3:01pm

Tue Dec 10, 2:10pm

Tue Dec 10, 2:01pm

Tue Dec 10, 1:10pm

Tue Dec 10, 1:00pm

Tue Dec 10, 12:10pm

Tue Dec 10, 12:00pm

Tue Dec 10, 11:10am

Tue Dec 10, 11:00am

Tue Dec 10, 10:10am

Tue Dec 10, 10:00am

Tue Dec 10, 9:10am

Tue Dec 10, 8:10am

Tue Dec 10, 8:00am

Tue Dec 10, 7:10am

Tue Dec 10, 7:00am

Tue Dec 10, 6:10am

Tue Dec 10, 6:00am

Tue Dec 10, 5:10am

Tue Dec 10, 5:00am

Tue Dec 10, 4:10am

Tue Dec 10, 4:00am

Tue Dec 10, 3:10am

Tue Dec 10, 3:00am

Tue Dec 10, 2:10am

Tue Dec 10, 2:01am

Tue Dec 10, 1:10am

Tue Dec 10, 1:00am

Tue Dec 10, 12:10am

Tue Dec 10, 12:01am

Mon Dec 9, 11:10pm

Mon Dec 9, 11:01pm

Mon Dec 9, 10:10pm

Mon Dec 9, 10:00pm

Mon Dec 9, 9:10pm

Mon Dec 9, 9:01pm

Mon Dec 9, 8:10pm

Mon Dec 9, 8:01pm

Mon Dec 9, 7:10pm

Mon Dec 9, 7:00pm

Mon Dec 9, 6:10pm

Mon Dec 9, 6:00pm

Mon Dec 9, 5:10pm

Mon Dec 9, 5:01pm

Meta data:

ID: dbec7fa9-f066-478e-8637-c85f42480323
Link: https://api.weather.gov/products/dbec7fa9-f066-478e-8637-c85f42480323